Zurück zum Katalog

ARIANE 42P DEB

AktivLEO
NORAD 44512·DEBRIS·🇫🇷 France

Gestartet Aug 10, 1992 von Guiana Space Centre

Loading…

Nächste Überflüge (nächste 24 Stunden)

TLE

AktuellSource: Space-Track

Epoche: Sep 14, 2026, 09:06 UTC

1 44512U 92052K   26257.37930938  .00001082  00000-0  39276-2 0  9998
2 44512  65.9159  36.6708 0258482 280.6716  76.5294 12.87364321331863

Verfolge ARIANE 42P DEB in Echtzeit mit AllMySat

Download on the App Store